Weather Roundup
Issued by NWS

Home | Current Version | Previous Version | Graphics & Text | Print | Product List | Glossary Off
Versions: 1 2 3 4 5 6 7 8 9 10 11 12 13 14 15 16 17 18 19 20 21 22 23 24 25 26 27 28 29 30 31 32 33 34 35 36 37 38 39 40 41 42 43 44 45 46 47 48 49 50

000
NZUS93 KARX 271159
HRRWXR

CURRENT HOURLY OBSERVATIONS ACROSS
MUCH OF THE UPPER MISSISSIPPI VALLEY
NATIONAL WEATHER SERVICE LA CROSSE WI
600 AM CST MON FEB 27 2017


...SOUTHEAST MINNESOTA...


CITY           SKY/WX    TMP DP  RH WIND       PRES   REMARKS
ROCHESTER      CLEAR     14  12  92 S8        29.98S WCI   3
ROCHESTER/MAYO FAIR      20  19  96 S8        29.99S WCI  10
WINONA         CLEAR     18  16  93 CALM      30.05R
AUSTIN         CLEAR     16  12  86 S3        29.99R
ALBERT LEA     CLEAR     18  16  93 S5        29.97S WCI  11
DODGE CENTER   NOT AVBL
PRESTON        CLEAR     20  18  89 S7        30.01R WCI  11
OWATONNA       CLEAR     19  16  86 S14       29.95S WCI   6
FARIBAULT      CLEAR     18  14  86 S7        29.96S WCI   8
$$

...ELSEWHERE IN MINNESOTA...


CITY           SKY/WX    TMP DP  RH WIND       PRES   REMARKS
MINNEAPOLIS    CLEAR     23  18  81 SE6       29.95S WCI  16
INTNL FALLS    CLOUDY     0  -4  83 CALM      29.90S
DULUTH         CLOUDY    17   9  70 CALM      29.91F
RED WING       CLEAR     19  16  86 SE5       29.98S WCI  13
REDWOOD FALLS  CLEAR     26  20  77 SW6       29.90R WCI  19
MANKATO          N/A     19  16  88 S9        29.96R WCI   8
WORTHINGTON    CLEAR     25  21  85 S12       29.92R WCI  14
FAIRMONT       CLEAR     16  13  88 SW8       29.96R WCI   5
$$

...SOUTHWEST WISCONSIN...


CITY           SKY/WX    TMP DP  RH WIND       PRES   REMARKS
LA CROSSE      CLEAR     24  20  84 SE6       30.05R WCI  17
PRAIRIE DU CHI CLEAR     23  21  93 SE3       30.07R
BOSCOBEL       MOCLDY    19  17  92 CALM      30.09R
LONE ROCK      NOT AVBL
PLATTEVILLE    CLEAR     26  25  96 SE8       30.07R WCI  17
FORT MC COY    CLEAR     14  13  95 CALM      30.05R
MAUSTON-NEW LI SUNNY     23  21  93 SE5       30.04S WCI  17
VIROQUA        FAIR      23  22  94 S7        30.03R WCI  15
WIS DELLS      CLEAR     23  21  91 SE3       30.05S
$$

...ELSEWHERE IN WISCONSIN...


CITY           SKY/WX    TMP DP  RH WIND       PRES   REMARKS
MILWAUKEE      PTCLDY    24  20  84 CALM      30.11R
MADISON        PTCLDY    23  20  88 S3        30.08R
GREEN BAY      PTCLDY    22  17  81 CALM      30.09R
EAU CLAIRE     NOT AVBL
BLACK RVR FLS  FAIR      11  10  95 CALM      30.03R FOG
MEDFORD        CLOUDY    23  19  84 SE6       29.97S WCI  15
WAUSAU         CLOUDY    22  19  89 SE6       30.01S WCI  14
WIS RAPIDS     PTCLDY    21  19  92 S5        30.05R WCI  15
MARSHFIELD     CLOUDY    22  20  92 S6        30.00R WCI  14
RICE LAKE      MOCLDY    25  18  74 SE7       29.97R WCI  17
$$

...NORTHEAST IOWA...


CITY           SKY/WX    TMP DP  RH WIND       PRES   REMARKS
WATERLOO       CLEAR     21  19  92 SE5       30.04S FOG     WCI  15
DUBUQUE        CLEAR     25  21  85 CALM      30.06R
DECORAH        CLEAR     23  21  93 S5        30.03R WCI  17
MASON CITY     CLOUDY    14  12  92 S7        30.00F FOG     WCI   4
CHARLES CITY   CLEAR     21  21 100 SE7       30.03R WCI  13
OELWEIN        CLEAR     23  23 100 SE7       30.05R WCI  15
$$

...ELSEWHERE IN IOWA...


CITY           SKY/WX    TMP DP  RH WIND       PRES   REMARKS
DES MOINES     CLEAR     29  21  72 SE5       30.01S WCI  24
IOWA CITY      CLOUDY    30  25  81 CALM      30.08R
FORT DODGE     CLEAR     12   9  85 S3        30.00S
MARSHALLTOWN   CLEAR     20  19  96 E7        30.03R WCI  11
CEDAR RAPIDS   MOCLDY    27  25  92 E5        30.04R WCI  22
$$

...NORTHERN ILLINOIS...


CITY           SKY/WX    TMP DP  RH WIND       PRES   REMARKS
CHICAGO-OHARE  PTCLDY    29  23  78 S5        30.12R WCI  24
CHICAGO-MIDWAY CLOUDY    35  26  69 S5        30.13R WCI  31
MOLINE         CLEAR     30  26  85 CALM      30.09R
ROCKFORD       CLEAR     25  22  88 CALM      30.12R
PEORIA         CLEAR     29  27  92 CALM      30.12R
$$

NOTE: "FAIR" INDICATES FEW OR NO CLOUDS BELOW 12,000 FEET WITH NO
SIGNIFICANT WEATHER AND/OR OBSTRUCTIONS TO VISIBILITY. WIND
SPEEDS ARE IN MILES-PER-HOUR.




USA.gov is the U.S. government's official web portal to all federal, state and local government web resources and services.